Manchester, NH

6:05 AM EST on December 16, 2019 (GMT -0500)
Manchester

Weather History for KMHT - November, 2019

Change the Weather History Date:

Tuesday, November 19, 2019

  Actual Average Record
Temperature  
Mean Temperature 40 °F 40 °F  
Max Temperature 43 °F 48 °F 70 °F (1953)
Min Temperature 37 °F 32 °F 12 °F (1936)
Degree Days  
Heating Degree Days 25 25  
Month to date heating degree days 533 413  
Since 1 July heating degree days 951 1000  
Cooling Degree Days 0 0  
Month to date cooling degree days 0 0  
Year to date cooling degree days 844 642  
Moisture  
Dew Point 37 °F    
Average Humidity 91    
Maximum Humidity 100    
Minimum Humidity 82    
Precipitation  
Precipitation 0.08 in 0.14 in 1.25 in (1968)
Month to date precipitation 0.30 2.73  
Year to date precipitation 26.66 39.96  
Snow  
Snow 0.00 in - - ()
Month to date snowfall T  
Since 1 July snowfall T  
Snow Depth 0.00 in    
Sea Level Pressure  
Sea Level Pressure 29.78 in    
Wind  
Wind Speed 4 mph (East)    
Max Wind Speed 17 mph    
Max Gust Speed 21 mph    
Visibility 8 miles    
Events Rain    
T = Trace of Precipitation, MM = Missing Value Source: NWS Daily Summary

Daily Weather History Graph

Daily Weather History Graph

Search for Another Location

Airport or City:

Astronomy

Nov. 19, 2019 Rise Set
Actual Time 6:42 AM EST 4:19 PM EST
Civil Twilight 6:11 AM EST 4:49 PM EST
Nautical Twilight 5:37 AM EST 5:24 PM EST
Astronomical Twilight 5:03 AM EST 5:58 PM EST
Moon 11:12 PM EST (11/19) 12:50 PM EST (11/19)
Length of Visible Light 10h 38m
Length of Day
9h 36m
Waning Gibbous, 52% of the Moon is Illuminated
Nov 19
Waning Gibbous
Nov 19
Last Quarter
Nov 26
New
Dec 4
First Quarter
Dec 12
Full

Hourly Weather History & Observations

Time (EST) Temp. Windchill Dew Point Humidity Pressure Visibility Wind Dir Wind Speed Gust Speed Precip Events Conditions
12:11 AM 39.0 °F 35.7 °F 37.9 °F 96% 29.64 in 10.0 mi NNW 4.6 mph - N/A   Overcast
12:53 AM 39.0 °F 36.8 °F 37.0 °F 93% 29.71 in 10.0 mi SW 3.5 mph - N/A   Overcast
1:53 AM 39.0 °F - 37.9 °F 96% 29.72 in 10.0 mi Calm Calm - N/A   Overcast
2:49 AM 39.2 °F 37.0 °F 37.4 °F 93% 29.67 in 6.0 mi SSE 3.5 mph - 0.00 in Rain Light Rain
2:53 AM 39.0 °F 36.8 °F 37.0 °F 93% 29.73 in 6.0 mi SE 3.5 mph - 0.00 in Rain Light Rain
3:18 AM 39.0 °F 35.7 °F 37.9 °F 96% 29.67 in 2.5 mi SE 4.6 mph - 0.00 in   Overcast
3:30 AM 39.0 °F 35.7 °F 37.9 °F 96% 29.68 in 3.0 mi SE 4.6 mph - 0.00 in Rain Light Rain
3:53 AM 39.0 °F 34.8 °F 37.0 °F 93% 29.73 in 6.0 mi ESE 5.8 mph - 0.00 in Rain Light Rain
4:53 AM 39.0 °F 34.8 °F 37.0 °F 93% 29.74 in 7.0 mi ENE 5.8 mph - 0.00 in Rain Light Rain
5:53 AM 37.9 °F 33.5 °F 37.0 °F 97% 29.78 in 10.0 mi SSE 5.8 mph - 0.00 in Rain Light Rain
6:07 AM 37.9 °F - 36.0 °F 93% 29.74 in 10.0 mi Calm Calm - 0.00 in Rain Light Rain
6:49 AM 37.4 °F 34.9 °F 35.6 °F 93% 29.74 in 2.0 mi NE 3.5 mph - 0.00 in Rain Light Rain
6:53 AM 37.9 °F 34.4 °F 36.0 °F 93% 29.79 in 2.0 mi NNE 4.6 mph - 0.00 in Rain Light Rain
7:02 AM 37.0 °F 28.5 °F 35.1 °F 93% 29.72 in 2.0 mi NNE 13.8 mph - 0.01 in Rain Light Rain
7:12 AM 37.0 °F 27.7 °F 35.1 °F 93% 29.71 in 3.0 mi NNE 16.1 mph - 0.02 in Rain Light Rain
7:38 AM 37.0 °F 32.4 °F 36.0 °F 96% 29.74 in 5.0 mi South 5.8 mph - 0.04 in Rain Rain
7:53 AM 37.0 °F 33.3 °F 36.0 °F 96% 29.79 in 5.0 mi South 4.6 mph - 0.06 in Rain Light Rain
8:53 AM 37.0 °F 34.5 °F 36.0 °F 96% 29.79 in 4.0 mi South 3.5 mph - N/A Rain Rain
9:27 AM 37.0 °F 34.5 °F 36.0 °F 96% 29.74 in 6.0 mi SSW 3.5 mph - 0.01 in Rain Light Rain
9:35 AM 37.0 °F 34.5 °F 36.0 °F 96% 29.74 in 8.0 mi South 3.5 mph - 0.01 in Rain Light Rain
9:45 AM 37.0 °F 34.5 °F 36.0 °F 96% 29.74 in 10.0 mi SW 3.5 mph - 0.01 in Rain Light Rain
9:53 AM 37.9 °F 35.5 °F 36.0 °F 93% 29.80 in 10.0 mi SSW 3.5 mph - N/A Rain Light Rain
10:17 AM 39.0 °F - 37.0 °F 93% 29.75 in 2.5 mi Calm Calm - 0.00 in   Overcast
10:29 AM 37.9 °F - 37.0 °F 97% 29.75 in 1.5 mi Calm Calm - 0.00 in Rain Light Rain
10:53 AM 39.0 °F - 36.0 °F 89% 29.79 in 2.5 mi Calm Calm - 0.00 in   Overcast
11:11 AM 39.9 °F - 37.0 °F 89% 29.74 in 5.0 mi Calm Calm - N/A   Overcast
11:53 AM 39.9 °F - 37.0 °F 89% 29.79 in 10.0 mi Calm Calm - N/A   Overcast
12:53 PM 39.9 °F - 37.0 °F 89% 29.79 in 10.0 mi Calm Calm - N/A   Overcast
1:53 PM 42.1 °F - 37.9 °F 85% 29.79 in 10.0 mi Calm Calm - N/A   Overcast
2:07 PM 42.1 °F - 37.0 °F 82% 29.74 in 10.0 mi Calm Calm - N/A   Overcast
2:53 PM 42.1 °F - 37.9 °F 85% 29.81 in 10.0 mi Calm Calm - N/A   Overcast
3:13 PM 42.1 °F - 37.9 °F 85% 29.76 in 10.0 mi Calm Calm - N/A   Overcast
3:53 PM 42.1 °F 38.4 °F 37.0 °F 82% 29.82 in 10.0 mi NE 5.8 mph - N/A   Mostly Cloudy
4:53 PM 42.1 °F - 37.9 °F 85% 29.85 in 10.0 mi Calm Calm - N/A   Overcast
5:53 PM 41.0 °F 38.0 °F 37.0 °F 86% 29.88 in 10.0 mi NE 4.6 mph - N/A   Overcast
6:30 PM 41.0 °F 38.0 °F 37.0 °F 86% 29.83 in 10.0 mi NNE 4.6 mph - N/A   Overcast
6:42 PM 39.9 °F - 37.0 °F 89% 29.83 in 10.0 mi Calm Calm - N/A   Scattered Clouds
6:53 PM 39.9 °F - 37.0 °F 89% 29.89 in 10.0 mi Calm Calm - N/A   Mostly Cloudy
7:00 PM 39.9 °F - 37.0 °F 89% 29.84 in 10.0 mi Calm Calm - N/A   Mostly Cloudy
7:53 PM 41.0 °F 38.0 °F 37.0 °F 86% 29.90 in 10.0 mi NNE 4.6 mph - N/A   Overcast
8:53 PM 39.9 °F 36.7 °F 37.0 °F 89% 29.91 in 10.0 mi NNE 4.6 mph - N/A   Overcast
9:41 PM 39.0 °F 35.7 °F 37.0 °F 93% 29.85 in 10.0 mi NE 4.6 mph - N/A   Overcast
9:53 PM 39.0 °F 35.7 °F 37.0 °F 93% 29.90 in 10.0 mi NE 4.6 mph - N/A   Overcast
10:53 PM 39.0 °F 35.7 °F 37.0 °F 93% 29.90 in 10.0 mi North 4.6 mph - N/A   Overcast
11:34 PM 39.0 °F 36.8 °F 37.0 °F 93% 29.85 in 10.0 mi NE 3.5 mph - N/A   Overcast